Content
SEND FEEDBACK

Daily
Averages
Monthly
Summary
United States of America

ORANGE LAKE, NEW YORK


Home > North America > United States > New York
Elevation: 581 feet     Latitude: 41 47N     Longitude: 074 58W

WEATHER
 
SELECT A DAY
Number of Records: 152,235;   Date Range: 11/1/95 - 11/25/14
 
SHARE

PRINT THIS DATA

[ ← Previous Day ]
WEATHER ALMANAC - JANUARY 8, 2014
[ Next Day → ]
[ °C ]   °F
Weather ElementAverageHighLow
Temperature15.8 °F21.9 °F (10:51 pm)9 °F (1:51 am)
Dewpoint-2.9 °F1.9 °F (11:51 pm)-8 °F (1:51 am)
Humidity43.9 %53 % (7:51 am)38 % (1:51 pm)
Barometer30.49 in30.56 in (9:51 am)30.42 in (1:51 am)
Wind Speed7.1 mph12.7 mph (4:51 am)
Wind Gust20.7 mph (5:51 am)
Weather ElementAverage
Visibility10 mi
Wind DirectionSSE (148.7 °)

Weather ElementTotal
Precipitation---
Heating Degree Days49.6 (Base 65)
Averaged from 23 records on January 8, 2014
WEATHER CONDITIONS BREAKOUT
WIND DIRECTION BREAKOUT
WEATHER BY HOUR - JANUARY 8, 2014
[ °C ]   °F
Local TimeTemperatureDewpointHumidityBarometerVisibilityWind DirectionWind SpeedGust SpeedPrecipitationEventsConditions
1:51 AM9.0 °F-8.0 °F46 %30.42 in10.0 miWNW (290°)8.1 mphClear
2:51 AM9.0 °F-7.1 °F48 %30.45 in10.0 miWNW (300°)10.4 mph19.6 mphClear
3:51 AM9.0 °F-7.1 °F48 %30.46 in10.0 miVariable4.6 mphClear
4:51 AM9.0 °F-6.0 °F51 %30.47 in10.0 miWNW (290°)12.7 mph19.6 mphClear
5:51 AM9.0 °F-6.0 °F51 %30.45 in10.0 miWNW (290°)12.7 mph20.7 mphClear
6:51 AM9.0 °F-6.0 °F51 %30.47 in10.0 miWNW (290°)12.7 mph20.7 mphClear
7:51 AM9.0 °F-5.1 °F53 %30.52 in10.0 miVariable6.9 mphClear
8:51 AM10.0 °F-5.1 °F51 %30.54 in10.0 miVariable4.6 mph16.1 mphClear
9:51 AM12.0 °F-5.1 °F46 %30.56 in10.0 miWest (260°)10.4 mphClear
10:51 AM14.0 °F-4.0 °F45 %30.53 in10.0 miWNW (300°)9.2 mphClear
11:51 AM16.0 °F-2.9 °F43 %30.49 in10.0 miVariable4.6 mphScattered Clouds
12:51 PM19.0 °F-2.0 °F40 %10.0 miWNW (290°)5.8 mphClear
1:51 PM19.9 °F-2.0 °F38 %30.47 in10.0 miWNW (300°)5.8 mphOvercast
2:51 PM21.0 °F-0.9 °F38 %30.47 in10.0 miVariable4.6 mphScattered Clouds
3:51 PM21.0 °F0.0 °F40 %30.47 in10.0 miVariable5.8 mphClear
4:51 PM19.9 °F-0.9 °F40 %30.48 in10.0 miVariable5.8 mph17.3 mphClear
5:51 PM19.9 °F-0.9 °F40 %30.48 in10.0 miWest (270°)6.9 mphClear
6:51 PM21.0 °F0.0 °F40 %30.52 in10.0 miNorthClear
7:51 PM21.0 °F0.0 °F40 %30.51 in10.0 miWSW (250°)9.2 mphClear
8:51 PM21.0 °F0.0 °F40 %30.52 in10.0 miVariable4.6 mphClear
9:51 PM21.0 °F0.0 °F40 %30.52 in10.0 miCalmOvercast
10:51 PM21.9 °F0.0 °F38 %30.52 in10.0 miWNW (290°)5.8 mphOvercast
11:51 PM21.9 °F1.9 °F42 %30.50 in10.0 miVariable4.6 mphOvercast
Hourly data recorded from KNYC, located miles away from Orange Lake, New York







STORIES FROM OUR PARTNERS